FW6293 Weather Reports


time (UTC)temp
C
wind
direction
speed
KPH
gust
KPH
rain 1hr
cm
rain 24hr
cm
rain mn
cm
humidity
%
barometer
mb
20260505124516 17 300 4.8 12.9 0.00 0.00 0.00 67 1021.0
20260505123010 17 301 3.2 8.0 0.00 0.00 0.00 68 1021.0
20260505121506 16 296 3.2 8.0 0.00 0.00 0.00 73 1021.0
20260505120100 15 298 1.6 4.8 0.00 0.00 0.00 78 1021.0
20260505114615 14 33 1.6 3.2 0.00 0.00 0.00 79 1021.0
20260505113059 12 38 1.6 3.2 0.00 0.00 0.00 82 1021.0
20260505111608 12 134 0.0 0.0 0.00 0.00 0.00 82 1021.0
20260505101555 10 163 0.0 0.0 0.00 0.00 0.00 85 1021.0
20260505100055 10 163 0.0 0.0 0.00 0.00 0.00 85 1021.0
20260505094554 10 163 0.0 0.0 0.00 0.00 0.00 86 1021.0
20260505093052 10 163 0.0 0.0 0.00 0.00 0.00 84 1021.0
20260505091549 10 163 0.0 0.0 0.00 0.00 0.00 83 1021.0
20260505090053 10 163 0.0 0.0 0.00 0.00 0.00 82 1021.0
20260505084545 11 163 0.0 0.0 0.00 0.00 0.00 81 1021.0
20260505083050 11 163 0.0 0.0 0.00 0.00 0.00 80 1021.0
20260505081546 12 163 0.0 0.0 0.00 0.00 0.00 79 1021.0
20260505080040 12 163 0.0 0.0 0.00 0.00 0.00 77 1021.0
20260505074541 12 163 0.0 1.6 0.00 0.00 0.00 77 1021.0
20260505073034 12 163 0.0 3.2 0.00 0.00 0.00 76 1021.0
20260505071537 13 163 0.0 3.2 0.00 0.00 0.00 74 1021.0
20260505070039 13 205 0.0 0.0 0.00 0.00 0.00 73 1021.0
20260505064550 13 206 0.0 1.6 0.00 0.00 0.00 73 1021.0
20260505063031 13 206 0.0 3.2 0.00 0.00 0.00 73 1021.0
20260505061538 13 206 0.0 3.2 0.00 0.00 0.00 72 1021.0
20260505060032 13 289 0.0 0.0 0.00 0.00 0.00 73 1021.0
20260505054529 13 289 0.0 0.0 0.00 0.00 0.00 73 1021.0
20260505053028 13 289 0.0 0.0 0.00 0.00 0.00 72 1021.0
20260505051527 13 289 0.0 0.0 0.00 0.00 0.00 72 1021.0
20260505050127 13 289 0.0 0.0 0.00 0.00 0.00 72 1021.0
20260505041528 13 289 0.0 0.0 0.00 0.00 0.00 68 1021.0
20260505040016 14 289 0.0 0.0 0.00 0.00 0.00 66 1021.0
20260505034516 15 289 0.0 3.2 0.00 0.00 0.00 64 1021.0
20260505033018 15 289 0.0 6.4 0.00 0.00 0.00 63 1021.0
20260505031514 16 317 0.0 8.0 0.00 0.00 0.00 61 1021.0
20260505030014 16 315 1.6 4.8 0.00 0.00 0.00 59 1021.0
20260505024533 16 277 0.0 3.2 0.00 0.00 0.00 58 1021.0
20260505023013 16 302 1.6 6.4 0.00 0.00 0.00 58 1021.0
20260505021514 16 126 0.0 6.4 0.00 0.00 0.00 58 1021.0
20260505020011 17 187 1.6 6.4 0.00 0.00 0.00 57 1021.0
20260505014512 17 192 1.6 4.8 0.00 0.00 0.00 55 1021.0
20260505013018 17 273 0.0 11.3 0.00 0.00 0.00 53 1021.0
20260505011510 17 205 1.6 6.4 0.00 0.00 0.00 53 1021.0
20260505010010 18 211 1.6 9.7 0.00 0.00 0.00 51 1021.0
20260505004512 18 201 3.2 11.3 0.00 0.00 0.00 50 1021.0
20260505003013 18 200 4.8 9.7 0.00 0.00 0.00 49 1021.0
20260505001509 18 227 1.6 9.7 0.00 0.00 0.00 48 1021.0
20260505000022 19 223 1.6 6.4 0.00 0.00 0.00 48 1021.0
20260504234508 20 252 1.6 11.3 0.00 0.00 0.00 47 1021.0
20260504233010 20 241 3.2 14.5 0.00 0.00 0.00 46 1021.0
20260504231521 20 244 3.2 14.5 0.00 0.00 0.00 45 1021.0
20260504230006 21 84 4.8 16.1 0.00 0.00 0.00 44 1021.0
20260504224506 21 342 1.6 22.5 0.00 0.00 0.00 45 1021.0
20260504223004 21 202 6.4 16.1 0.00 0.00 0.00 43 1021.0
20260504221505 22 143 3.2 17.7 0.00 0.00 0.00 42 1021.0
20260504220007 22 302 9.7 19.3 0.00 0.00 0.00 43 1021.0
20260504214502 23 295 9.7 17.7 0.00 0.00 0.00 40 1021.0
20260504213004 22 284 6.4 14.5 0.00 0.00 0.00 40 1021.0
20260504211559 22 265 8.0 17.7 0.00 0.00 0.00 44 1021.0
20260504210110 22 290 17.7 27.4 0.00 0.00 0.00 40 1021.0
20260504204602 22 294 16.1 24.1 0.00 0.00 0.00 42 1021.0
20260504203054 22 277 9.7 20.9 0.00 0.00 0.00 42 1021.0
20260504201554 22 299 11.3 20.9 0.00 0.00 0.00 43 1021.0
20260504200052 22 296 17.7 24.1 0.00 0.00 0.00 43 1021.0
20260504194605 22 311 12.9 24.1 0.00 0.00 0.00 44 1021.0
20260504193047 22 278 8.0 22.5 0.00 0.00 0.00 42 1021.0
20260504191549 21 295 14.5 25.7 0.00 0.00 0.00 46 1021.0
20260504184551 21 295 14.5 25.7 0.00 0.00 0.00 46 1021.0
20260504183041 21 282 19.3 29.0 0.00 0.00 0.00 43 1021.0
20260504181544 20 275 11.3 35.4 0.00 0.00 0.00 47 1021.0
20260504174536 20 279 8.0 27.4 0.00 0.00 0.00 46 1021.0
20260504173038 20 269 14.5 25.7 0.00 0.00 0.00 45 1021.0
20260504171533 20 302 17.7 30.6 0.00 0.00 0.00 48 1021.0
20260504150115 16 312 9.7 20.9 0.00 0.00 0.00 48 1021.0